Location: ????? ???????
(25.7275°N, 32.5929°E)
Time: 10:52:31
(UTC+00:00)

CZ-4 R/B - Pass Details

Date: 02 March 2021
Orbit: 532 x 597 km, 97.7° (Epoch: 16 April)

Event Time Altitude Azimuth Distance (km) Brightness Sun altitude
Rises 16:20:43 0° 156° (SSE) 2,661 4.6 -7.3°
Reaches altitude 10° 16:22:52 10° 150° (SSE) 1,773 3.7 -7.8°
Maximum altitude 16:26:32 47° 76° (ENE) 711 1.5 -8.6°
Drops below altitude 10° 16:30:14 10° 2° (N) 1,790 3.9 -9.4°
Sets 16:32:25 0° 357° (N) 2,689 4.9 -9.9°
